Alexandria Esle, LA

11:14 PM CDT on June 28, 2017 (GMT -0500)
Alexandria Esler Regional

Weather History for KESF - November, 2013

Change the Weather History Date:

Tuesday, November 19, 2013

  Actual Average Record
Temperature  
Mean Temperature 54 °F -  
Max Temperature 66 °F 69 °F 85 °F (1988)
Min Temperature 39 °F 47 °F 24 °F (2014)
Degree Days  
Heating Degree Days 12    
Growing Degree Days 4 (Base 50)    
Moisture  
Dew Point 33 °F    
Average Humidity 50    
Maximum Humidity 86    
Minimum Humidity 17    
Precipitation  
Precipitation 0.00 in - - ()
Sea Level Pressure  
Sea Level Pressure 30.14 in    
Wind  
Wind Speed 5 mph (ENE)    
Max Wind Speed 10 mph    
Max Gust Speed 17 mph    
Visibility 10 miles    
Events      
Averages and records for this station are not official NWS values.
T = Trace of Precipitation, MM = Missing Value Source: NWS Daily Summary

Daily Weather History Graph

Daily Weather History Graph

Search for Another Location

Airport or City:

Trip Planner

Search our weather history database for the weather conditions in past years. The results will help you decide how hot, cold, wet, or windy it might be!

Date:

Astronomy

Nov. 19, 2013 Rise Set
Actual Time 6:40 AM CST 5:08 PM CST
Civil Twilight 6:14 AM CST 5:34 PM CST
Nautical Twilight 5:45 AM CST 6:04 PM CST
Astronomical Twilight 5:16 AM CST 6:33 PM CST
Moon 7:01 PM CST (11/19) 8:18 AM CST (11/19)
Length of Visible Light 11h 19m
Length of Day
10h 28m
Waning Gibbous, 96% of the Moon is Illuminated
Nov 19
Waning Gibbous
Nov 25
Last Quarter
Dec 2
New
Dec 9
First Quarter
Dec 17
Full

Hourly Weather History & Observations

Time (CST) Temp. Dew Point Humidity Pressure Visibility Wind Dir Wind Speed Gust Speed Precip Events Conditions
12:53 AM 54.0 °F 39.9 °F 59% 30.16 in 10.0 mi NE 4.6 mph - N/A   Clear
1:53 AM 53.1 °F 39.9 °F 61% 30.15 in 10.0 mi NE 4.6 mph - N/A   Clear
2:53 AM 52.0 °F 39.0 °F 61% 30.16 in 10.0 mi Variable 4.6 mph - N/A   Clear
3:53 AM 53.1 °F 37.9 °F 57% 30.15 in 10.0 mi ENE 4.6 mph - N/A   Clear
4:53 AM 53.1 °F 39.0 °F 59% 30.15 in 10.0 mi Variable 4.6 mph - N/A   Clear
5:53 AM 52.0 °F 37.9 °F 59% 30.17 in 10.0 mi East 3.5 mph - N/A   Clear
6:53 AM 51.1 °F 37.0 °F 59% 30.17 in 10.0 mi ENE 4.6 mph - N/A   Clear
7:53 AM 53.1 °F 37.0 °F 55% 30.19 in 10.0 mi Variable 5.8 mph - N/A   Clear
8:53 AM 55.0 °F 36.0 °F 49% 30.22 in 10.0 mi ENE 6.9 mph - N/A   Clear
9:53 AM 57.9 °F 32.0 °F 37% 30.21 in 10.0 mi Variable 6.9 mph 17.3 mph N/A   Clear
10:53 AM 60.1 °F 30.0 °F 32% 30.21 in 10.0 mi Variable 6.9 mph - N/A   Clear
11:53 AM 63.0 °F 25.0 °F 24% 30.17 in 10.0 mi ENE 8.1 mph - N/A   Clear
12:53 PM 64.9 °F 23.0 °F 20% 30.15 in 10.0 mi Variable 6.9 mph - N/A   Clear
1:53 PM 66.0 °F 19.9 °F 17% 30.11 in 10.0 mi East 8.1 mph - N/A   Clear
2:53 PM 66.0 °F 19.9 °F 17% 30.09 in 10.0 mi ENE 10.4 mph - N/A   Clear
3:53 PM 64.9 °F 21.0 °F 19% 30.09 in 10.0 mi ENE 6.9 mph - N/A   Clear
4:53 PM 61.0 °F 27.0 °F 27% 30.10 in 10.0 mi Variable 3.5 mph - N/A   Clear
5:53 PM 50.0 °F 34.0 °F 54% 30.10 in 10.0 mi Calm Calm - N/A   Clear
6:53 PM 48.0 °F 35.1 °F 61% 30.12 in 10.0 mi Calm Calm - N/A   Clear
7:53 PM 45.0 °F 36.0 °F 71% 30.13 in 10.0 mi Calm Calm - N/A   Clear
8:53 PM 48.0 °F 34.0 °F 58% 30.12 in 10.0 mi NE 3.5 mph - N/A   Clear
9:53 PM 43.0 °F 36.0 °F 76% 30.12 in 10.0 mi Calm Calm - N/A   Clear
10:53 PM 41.0 °F 37.0 °F 86% 30.12 in 10.0 mi Calm Calm - N/A   Clear
11:53 PM 39.9 °F 36.0 °F 86% 30.11 in 10.0 mi Calm Calm - N/A   Clear